EHI
1 2 6 10 14 16 16 15 15 14 12 10 9 6 4 3 2 1 0 0 0 0 0 0 0 0 0 0 0 0 0 0 0 0 0 0 0 0 0 0 0 0 0
3 4 7 11 14 16 17 16 15 14 12 10 9 6 3 2 2 1 0 0 0 0 0 0 0 0 0 0 0 0 0 0 0 0 0 0 0 0 0 0 0 0 0
6 5 6 10 14 16 17 16 15 13 11 9 8 4 2 1 1 0 0 0 0 0 0 0 0 0 0 0 0 0 0 0 0 0 0 0 0 0 0 0 0 0 0
6 6 6 9 13 15 16 16 14 12 10 8 6 3 1 0 0 0 0 0 0 0 0 0 0 0 0 0 0 0 0 0 0 0 0 0 0 0 0 0 0 0 0
6 6 8 11 13 13 15 15 14 12 10 7 4 2 1 0 0 0 0 0 0 0 0 0 0 0 0 0 0 0 0 0 0 0 0 0 0 0 0 0 0 0 0
7 7 10 14 14 13 13 14 13 11 9 6 3 1 0 0 0 0 0 0 0 0 0 0 0 0 0 0 0 0 0 0 0 0 0 0 0 0 0 0 0 0 0
8 7 9 13 13 11 11 12 11 10 8 6 3 1 0 0 0 0 0 0 0 0 0 0 0 0 0 0 0 0 0 0 0 0 0 0 0 0 0 0 0 0 0
9 7 6 9 10 9 10 11 10 9 7 5 3 2 1 1 0 0 0 0 0 0 0 0 0 0 0 0 0 0 0 0 0 0 0 0 0 0 0 0 0 0 0
9 8 6 6 7 7 8 9 9 8 6 4 3 3 2 2 1 0 0 0 0 0 0 0 0 0 0 0 0 0 0 0 0 0 0 0 0 0 0 0 0 0 0
7 7 5 4 5 6 7 8 8 6 5 3 3 3 3 3 1 0 0 0 0 0 0 0 0 0 0 0 0 0 0 0 0 0 0 0 0 0 0 0 0 0 0
4 4 4 4 4 6 6 7 7 6 4 3 3 3 3 3 2 0 0 0 0 0 0 0 0 0 0 0 0 0 0 0 0 0 0 0 0 0 0 0 0 0 0
3 3 3 3 4 6 6 6 6 5 4 3 3 2 2 2 1 0 0 0 0 0 0 0 0 0 0 0 0 0 0 0 0 0 0 0 0 0 0 0 0 0 0
3 3 3 3 4 5 6 6 5 4 3 3 3 2 1 1 0 0 0 0 0 0 0 0 0 0 0 0 0 0 0 0 0 0 0 0 0 0 0 0 0 0 0
3 3 3 3 3 4 5 5 4 3 3 3 3 2 1 0 0 0 0 0 0 0 0 0 0 0 0 0 0 0 0 0 0 0 0 0 0 0 0 0 0 0 0
1 2 3 3 3 3 4 4 3 3 3 3 3 2 1 0 0 0 0 0 0 0 0 0 0 0 0 0 0 0 0 0 0 0 0 0 0 0 0 0 0 0 0
0 1 1 2 3 3 3 2 2 2 3 3 3 2 1 0 0 0 0 0 0 0 0 0 0 0 0 0 0 0 0 0 0 0 0 0 0 0 0 0 0 0 0
0 0 0 1 1 2 3 2 1 1 2 2 2 2 1 0 0 0 0 0 0 0 0 0 0 0 0 0 0 0 0 0 0 0 0 0 0 0 0 0 0 0 0
0 0 0 0 0 1 2 2 1 1 1 1 1 1 0 0 0 0 0 0 0 0 0 0 0 0 0 0 0 0 0 0 0 0 0 0 0 0 0 0 0 0 0
0 0 0 0 0 0 1 1 1 1 0 0 0 0 0 0 0 0 0 0 0 0 0 0 0 0 0 0 0 0 0 0 0 0 0 0 0 0 0 0 0 0 0
0 0 0 0 0 0 0 0 1 1 0 0 0 0 0 0 0 0 0 0 0 0 0 0 0 0 0 0 0 0 0 0 0 0 0 0 0 0 0 0 0 0 0
0 0 0 0 0 0 0 0 0 0 0 0 0 0 0 0 0 0 0 0 0 0 0 0 0 0 0 0 0 0 0 0 0 0 0 0 0 0 0 0 0 0 0
0 0 0 0 0 0 0 0 0 0 0 0 0 0 0 0 0 0 0 0 0 0 0 0 0 0 0 0 0 0 0 0 0 0 0 0 0 0 0 0 0 0 0
0 0 0 0 0 0 0 0 0 0 0 0 0 0 0 0 0 0 0 0 0 0 0 0 0 0 0 0 0 0 0 0 0 0 0 0 0 0 0 0 0 0 0
0 0 0 0 0 0 0 0 0 0 0 0 0 0 0 0 0 0 0 0 0 0 0 0 0 0 0 0 0 0 0 0 0 0 0 0 0 0 0 0 0 0 0
0 0 0 0 0 0 0 0 0 0 0 0 0 0 0 0 0 0 0 0 0 0 0 0 0 0 0 0 0 0 0 0 0 0 0 0 0 0 0 0 0 0 0
0 0 0 0 0 0 0 0 0 0 0 0 0 0 0 0 0 0 0 0 0 0 0 0 0 0 0 0 0 0 0 0 0 0 0 0 0 0 0 0 0 0 0
Wind_Speed
1 2 5 6 7 8 9 10 10 11 11 11 12 12 12 13 13 13 12 12 12 12 12 13 13 13 13 13 13 13 13 13 13 14 14 13 13 14 14 14 12 9 14
3 3 5 6 7 8 8 10 10 10 11 11 12 12 12 12 12 12 12 12 12 11 12 12 12 12 12 13 13 12 12 12 13 12 12 11 12 13 13 13 12 9 14
3 3 5 6 7 7 8 9 10 10 11 11 11 11 12 12 12 12 12 11 11 11 11 12 12 12 11 11 12 12 11 11 11 11 9 5 7 12 12 12 12 12 13
4 3 4 6 7 7 8 9 10 10 10 11 11 11 11 11 11 11 11 11 11 11 11 11 11 11 10 10 10 10 10 10 10 8 5 3 4 10 11 11 11 11 12
3 3 4 6 6 7 8 9 10 10 10 10 10 11 11 11 11 11 11 10 10 11 11 10 10 10 9 9 9 9 10 10 9 7 4 3 3 9 11 10 10 11 11
3 2 4 6 6 7 8 8 9 9 10 10 10 10 10 11 11 10 10 10 10 10 10 9 9 9 8 8 9 9 9 9 7 4 3 3 3 8 10 10 10 10 10
4 2 3 5 6 7 8 8 8 9 9 9 9 9 10 11 11 10 10 10 9 9 9 9 8 8 7 8 8 8 8 7 5 3 2 2 4 8 9 9 9 8 9
4 2 2 4 5 6 7 7 7 8 8 8 8 9 10 10 10 10 10 9 9 9 8 8 7 7 7 7 7 7 6 5 4 3 2 2 5 7 7 7 7 7 7
4 3 2 1 2 4 5 6 6 7 7 7 7 8 9 9 9 9 9 8 8 8 7 7 7 6 6 6 6 6 6 5 3 1 2 2 5 6 6 6 6 6 6
4 3 2 1 1 1 3 5 5 6 6 7 7 7 8 8 8 8 7 7 7 7 6 6 6 5 5 5 5 5 5 4 2 1 1 2 4 6 6 6 5 5 5
3 2 2 1 1 1 2 3 4 5 6 7 6 7 6 4 4 4 5 6 6 6 6 5 5 5 4 4 4 4 3 2 1 1 0 2 4 4 5 6 5 4 4
2 1 1 1 1 1 1 2 2 3 3 4 3 4 3 3 3 4 5 6 6 5 5 4 4 4 3 2 2 3 2 2 1 0 1 2 3 4 5 5 5 4 4
2 1 1 1 1 1 1 2 1 2 2 3 4 3 3 3 2 2 2 3 3 3 2 2 2 1 1 1 1 1 1 1 1 0 0 2 2 4 5 5 5 4 4
2 1 1 1 1 2 2 2 2 2 2 2 2 3 3 2 2 2 2 2 1 1 1 1 1 1 1 1 1 1 1 1 0 0 0 1 1 2 4 4 4 4 3
1 1 0 1 2 1 2 2 2 2 2 2 2 2 3 3 3 2 2 2 1 1 1 1 0 0 1 1 1 1 0 1 1 0 0 1 1 2 4 4 4 4 4
1 1 0 1 1 2 2 2 2 2 2 2 2 2 3 2 3 3 2 2 1 1 1 1 1 1 0 0 0 0 1 1 1 1 0 0 0 1 3 4 4 4 4
2 1 1 1 1 1 2 2 2 2 2 3 2 3 3 3 3 3 3 2 1 1 1 1 1 1 1 1 0 0 1 1 1 2 1 1 0 1 2 3 4 4 4
2 2 1 1 2 1 1 2 2 2 2 2 2 3 4 4 4 3 2 2 2 1 1 1 1 1 1 0 0 1 1 1 1 2 2 1 1 1 1 3 3 4 4
2 2 2 2 2 2 1 2 2 2 2 2 2 2 3 4 4 3 2 2 2 2 1 1 1 1 0 0 1 0 1 1 2 2 2 2 2 1 1 2 2 3 4
2 3 2 2 2 2 1 2 2 2 2 1 1 2 3 3 4 3 2 2 2 2 1 1 1 1 0 0 0 1 1 1 1 1 2 1 1 1 1 1 1 3 2
2 3 2 2 2 2 1 1 1 0 1 1 1 2 2 3 4 4 3 2 2 2 2 1 1 1 1 1 1 1 2 1 0 1 1 1 0 1 1 1 1 1 1
2 2 2 2 1 1 1 1 1 1 1 1 1 1 2 2 2 3 3 3 2 2 2 1 1 1 1 1 1 1 1 2 2 1 0 0 0 0 1 0 0 0 1
2 1 2 1 1 2 2 2 2 2 2 2 1 0 0 2 2 2 2 2 2 2 2 2 2 2 1 0 1 2 1 2 2 2 1 1 1 1 1 0 1 1 1
1 1 1 1 2 2 2 2 3 2 1 1 1 0 1 1 2 1 2 2 2 2 2 2 2 1 2 1 0 0 0 1 1 2 2 2 2 1 1 1 1 1 1
1 2 2 2 2 2 2 2 2 2 1 1 1 1 1 1 1 1 1 1 2 2 2 2 2 2 2 2 2 1 0 0 0 1 2 3 3 2 2 2 2 1 1
2 2 2 2 2 2 1 2 2 2 2 2 1 1 1 0 1 1 1 0 1 2 2 2 2 2 2 2 2 2 2 1 1 1 2 3 3 3 3 2 2 2 2
Wind_Direction
189 192 156 138 127 124 122 120 116 114 112 111 110 111 110 108 106 105 104 102 101 100 100 98 95 93 91 91 90 89 88 86 85 85 84 87 90 91 88 84 82 79 85
174 182 149 137 134 130 124 123 120 117 114 113 113 112 112 109 107 107 106 104 103 103 101 100 98 97 94 92 91 91 90 89 87 83 80 82 88 92 92 90 89 88 88
131 155 145 134 130 128 125 125 122 121 118 117 117 116 114 112 110 108 107 105 104 103 101 100 99 97 96 95 93 92 92 92 92 85 77 70 86 94 96 94 93 93 92
131 135 140 131 129 128 126 127 128 126 124 121 122 121 118 116 115 113 111 108 106 104 103 101 99 98 97 95 93 93 94 93 92 84 70 63 83 98 98 97 97 96 94
121 129 134 128 131 130 128 126 129 129 127 126 126 125 123 120 119 119 116 114 112 109 108 105 103 100 98 96 94 94 94 93 90 79 70 65 77 101 99 98 97 97 97
104 116 137 126 134 130 131 128 130 131 131 130 129 129 125 122 121 118 115 115 114 113 112 110 106 102 98 98 96 92 93 90 80 74 74 79 92 105 104 101 100 99 97
99 84 128 123 133 135 136 132 133 134 132 134 133 133 127 125 122 118 115 113 113 117 117 115 111 104 101 103 98 94 91 86 80 80 76 88 107 112 110 107 105 104 102
114 99 109 125 123 134 138 137 137 139 137 136 133 135 131 127 124 123 119 115 114 116 117 117 113 106 103 105 100 95 91 86 90 87 80 97 118 117 115 113 111 113 110
101 98 81 106 121 134 135 135 135 140 138 135 132 133 129 125 126 125 122 118 117 117 116 112 109 105 101 105 102 91 85 83 80 84 104 109 125 124 119 115 113 117 120
77 72 73 68 99 126 145 134 132 129 133 131 123 123 126 127 127 124 120 118 118 115 116 114 109 98 90 94 98 91 85 80 78 75 93 134 137 136 132 129 121 116 122
72 52 52 57 78 103 141 142 133 130 130 123 120 121 120 120 124 126 119 116 115 113 115 113 106 93 76 78 87 86 77 79 92 85 131 145 155 154 145 138 133 128 124
90 53 48 60 70 98 122 127 124 118 121 115 113 117 111 109 111 115 117 115 114 109 109 103 90 80 64 57 67 71 75 81 78 73 138 138 157 163 152 143 139 141 140
155 123 67 82 79 90 91 113 109 98 103 106 111 111 112 107 106 103 110 111 108 101 93 84 66 51 55 60 65 72 82 82 63 5 112 122 145 161 159 147 142 143 141
122 125 96 90 87 80 89 104 114 110 111 112 116 117 121 121 116 116 107 105 97 88 88 83 69 35 51 72 99 98 89 104 120 310 227 120 159 175 180 170 165 164 171
112 75 122 99 107 105 97 104 110 118 119 119 117 115 115 126 133 128 123 117 111 105 112 97 68 66 64 63 91 117 150 163 163 215 256 134 163 202 194 186 181 180 185
145 131 43 91 122 118 119 125 119 133 133 128 124 124 121 128 134 136 134 131 127 133 144 148 150 130 161 105 72 153 212 195 183 190 200 220 214 241 218 205 196 189 195
166 152 120 123 89 101 117 125 119 125 138 137 140 133 129 130 136 138 140 138 146 146 133 103 86 78 67 48 353 259 221 211 180 177 181 198 258 280 252 232 217 215 217
131 125 111 108 85 77 93 108 118 123 137 144 145 143 143 141 137 138 145 149 148 137 126 121 96 79 64 49 339 288 241 202 189 192 185 193 201 257 265 244 239 238 232
118 118 102 92 104 104 105 110 106 110 116 141 144 147 153 150 145 141 146 148 140 129 122 136 94 104 81 340 279 276 258 210 205 195 202 209 206 210 238 263 261 261 247
111 105 96 79 78 92 96 79 77 81 89 109 137 146 150 149 146 140 137 130 130 127 117 108 101 59 106 237 288 341 304 270 203 204 211 213 220 230 226 231 262 273 257
91 88 89 85 70 83 84 104 112 119 127 122 112 114 126 141 146 140 136 134 141 148 149 133 113 85 33 30 56 359 337 327 277 246 217 182 228 277 252 205 222 253 276
123 101 89 82 84 95 78 121 139 150 121 108 106 99 135 123 142 145 144 149 152 146 135 129 108 104 49 59 101 77 337 324 329 319 318 187 233 357 283 4 81 250 261
79 101 113 99 91 74 66 77 80 68 58 51 45 51 101 128 135 133 143 150 154 152 161 172 158 144 157 292 81 133 161 245 302 303 318 314 343 329 287 316 292 272 263
87 62 96 106 90 73 84 97 110 122 131 192 192 156 64 83 102 116 137 145 160 167 171 185 170 175 159 182 276 298 175 168 196 297 308 328 320 285 284 299 290 289 279
98 90 68 65 65 64 84 99 114 123 135 110 78 80 65 40 71 79 107 140 168 183 187 190 182 181 183 183 183 186 266 4 98 201 287 313 311 290 277 270 270 268 276
66 69 75 67 42 49 82 96 105 129 133 113 90 104 72 0 355 29 76 141 202 199 194 208 205 193 202 196 192 180 170 177 212 199 252 283 289 293 291 276 268 267 276